Regional Weather Roundup
Issued by NWS

Home | Current Version | Previous Version | Graphics & Text | Print | Product List | Glossary On
Versions: 1 2 3 4 5 6 7 8 9 10 11 12 13 14 15 16 17 18 19 20 21 22 23 24 25 26 27 28 29 30 31 32 33 34 35 36 37 38 39 40 41 42 43 44 45 46 47 48 49 50
000
ASUS43 KMKX 250210
RWRWI

WISCONSIN REGIONAL WEATHER ROUNDUP
NATIONAL WEATHER SERVICE MILWAUKEE/SULLIVAN WI
800 PM CST SAT JAN 24 2015

NOTE: "FAIR" INDICATES FEW OR NO CLOUDS BELOW 12,000 FEET WITH NO
SIGNIFICANT WEATHER AND/OR OBSTRUCTIONS TO VISIBILITY.

WIZ001-002-006>008-014>016-023>028-250300-
NORTHWEST WISCONSIN

CITY           SKY/WX    TMP DP  RH WIND       PRES   REMARKS
SUPERIOR ARPT  CLOUDY    28  22  81 E14G21    29.74R WCI  16
ASHLAND        CLOUDY    23  19  85 E17G26    29.76R WCI   9
HAYWARD        CLOUDY    28  23  81 NE16      29.68R WCI  16
SIREN          CLOUDY    35  29  79 NE6       29.65R WCI  30
CUMBERLAND     CLOUDY    34  30  86 NE3       29.63R
RICE LAKE      CLOUDY    33  31  91 N3        29.65R
CHETEK         CLOUDY    32  31  94 CALM      29.64R
LADYSMITH      CLOUDY    35  31  83 N5        29.65R WCI  31
EAU CLAIRE     CLOUDY    32  28  85 CALM      29.63R
MENOMONIE      CLOUDY    33  31  92 E5        29.63S WCI  28
NEW RICHMOND   CLOUDY    33  32  97 CALM      29.62S
OSCEOLA        CLOUDY    36  31  83 NE3       29.65R
$$

WIZ003>005-009-010-017-018-250300-
NORTH CENTRAL WISCONSIN

CITY           SKY/WX    TMP DP  RH WIND       PRES   REMARKS
MANITOWISH WTR CLOUDY    21  17  86 NE10G17   29.68R WCI  10
ARBOR VITAE    CLOUDY    25  21  84 NE3       29.67R
WOODRUFF       CLOUDY    25  21  84 NE3       29.67R
RHINELANDER    CLOUDY    26  22  84 E7        29.67R WCI  18
EAGLE RIVER    CLOUDY    22  17  81 NE13      29.67R WCI   9
LAND O LAKES   MOCLDY    20  17  85 NE6       29.69R WCI  13
PHILLIPS       CLOUDY    28  25  86 NE10      29.65R WCI  19
TOMAHAWK       CLOUDY    30  25  82 NE7G17    29.66R WCI  23
MEDFORD        CLOUDY    32  30  91 CALM      29.62S
MERRILL        CLOUDY    34  30  86 CALM      29.64R
$$

WIZ029-030-035-036-043>047-250300-
CENTRAL WISCONSIN

CITY           SKY/WX    TMP DP  RH WIND       PRES   REMARKS
WAUSAU         CLOUDY    34  30  85 CALM      29.62R
MOSINEE        MOCLDY    34  32  93 CALM      29.64R
MARSHFIELD     CLOUDY    33  30  88 CALM      29.63R
STEVENS POINT  CLOUDY    32  29  90 CALM      29.65R
WAUPACA        CLOUDY    35  32  90 SW5       29.66R WCI  30
WAUTOMA        CLOUDY    33  32  96 CALM      29.67R
WISC RAPIDS    CLOUDY    31  28  89 CALM      29.66R
CAMP DOUGLAS   MOCLDY    27  27 100 E3        29.64S
$$

WIZ011>013-019>022-031-037>040-048>050-250300-
NORTHEAST WISCONSIN

CITY           SKY/WX    TMP DP  RH WIND       PRES   REMARKS
ANTIGO         CLOUDY    31  27  82 NE16      29.64R WCI  20
SHAWANO        CLOUDY    33  28  83 E13       29.68R WCI  24
OCONTO         CLOUDY    27  23  84 E12       29.71R WCI  17
STURGEON BAY   CLOUDY    25  19  80 NE15G22   29.73R WCI  12
GREEN BAY      CLOUDY    29  25  85 NE22G30   29.69R WCI  15
MANITOWOC      MIX PCPN  32  30  92 NE12G18   29.68R WCI  23
APPLETON       CLOUDY    34  32  93 VRB5      29.64S WCI  30
CLINTONVILLE   CLOUDY    32  28  86 E14       29.66R WCI  22
OSHKOSH        FLURRIES  33  30  88 SW3       29.66R
$$

WIZ032>034-041-042-053>061-250300-
SOUTHWEST WISCONSIN

CITY           SKY/WX    TMP DP  RH WIND       PRES   REMARKS
LA CROSSE      CLOUDY    34  30  85 CALM      29.62F
SPARTA         MOCLDY    30  29  95 CALM      29.65S
VIROQUA        CLOUDY    35  32  89 CALM      29.61F
BOSCOBEL       CLOUDY    33  29  85 CALM      29.63F
PRAIRIE DU CHI CLOUDY    36  32  85 CALM      29.62S
PLATTEVILLE    CLOUDY    36  33  90 CALM      29.63S
$$

WIZ056-057-062-063-064-067-068-250300-
SOUTH CENTRAL WISCONSIN

CITY           SKY/WX    TMP DP  RH WIND       PRES   REMARKS
REEDSBURG      CLOUDY    31  30  94 CALM      29.65R
BARABOO/DELLS  CLOUDY    30  29  94 CALM      29.65R FOG
LONE ROCK      CLOUDY    32  29  88 CALM      29.65R
MINERAL POINT  CLOUDY    37  32  81 CALM      29.63S
MADISON        CLOUDY    31  28  89 CALM      29.66R
MIDDLETON      MOCLDY    32  31  97 CALM      29.66R
WATERTOWN      CLOUDY    33  31  94 W3        29.67R
MONROE         CLOUDY    32  32 100 S7        29.64R WCI  26
JANESVILLE     PTCLDY    30  28  93 VRB5      29.66R WCI  25
$$

WIZ051-052-058>065-066-070>072-250300-
SOUTHEAST WISCONSIN

CITY           SKY/WX    TMP DP  RH WIND       PRES   REMARKS
MILWAUKEE      CLOUDY    35  29  78 W6        29.68R WCI  30
WAUKESHA       CLOUDY    32  28  86 W6        29.67R WCI  26
MILWAUKEE/TIMM CLOUDY    34  28  80 SW6       29.68R WCI  29
RACINE         CLOUDY    34  29  82 W3        29.69R
BURLINGTON     CLOUDY    32  29  90 N5        29.67S WCI  27
KENOSHA        CLOUDY    33  30  88 NW7       29.67S WCI  27
FOND DU LAC    CLOUDY    34  30  85 MISG      29.66R
SHEBOYGAN      CLOUDY    34  30  85 NW5       29.65R WCI  30
WEST BEND      CLOUDY    34  30  86 CALM      29.66R
JUNEAU         CLOUDY    32  31  94 CALM      29.67R
$$

LSZ147-162-250300-
LAKE SUPERIOR

STATION/POSITION TIME  TEMP    WIND        PRES    WAVE
                       AIR SEA DIR/SP/G            HT/PER
                 (UTC) (F)     (DEG/KT/KT) (MB)    (FT/S)
DEVILS ISLAND    0200   22      70/ 25/ 28 1009.8R
PORT WING        0100   26      80/  7/ 15 1007.5R
SAXON HARBOR     0100   26      60/ 13/ 15 1007.1R
$$

LMZ867-665-643>646-250300-
LAKE MICHIGAN

STATION/POSITION TIME  TEMP    WIND        PRES    WAVE
                       AIR SEA DIR/SP/G            HT/PER
                 (UTC) (F)     (DEG/KT/KT) (MB)    (FT/S)
NORTHPORT PIER   0201   24     360/ 20     1007.1R
SISTER BAY       0113   24      10/ 18/ 23   N/A
KEWAUNEE LAKESHO 0100   31      40/ 20/ 24 1004.2R
SHEBOYGAN LAKESH 0200   35      10/  3/  4 1005.0R
PORT WASHINGTON  0100   37        CALM     1005.4R
MILWAUKEE LAKESH 0100   36     290/  4/  5   N/A
KENOSHA   LAKESH 0200   33     320/  7/ 11 1005.4R
$$

TC  - TEMPERATURE IN CELSIUS
VSB - VISIBILITY IN STATUTE MILES
WCI - WIND CHILL INDEX
HX  - HEAT INDEX




USA.gov is the U.S. government's official web portal to all federal, state and local government web resources and services.